• In Uzbekistan
  • List of Countries
  • For 7 days
  • Water Temperature
  • Satellite Maps
  • Weather Map
  • Weather Widgets
  • user-avatar
    Login

    Hourly Weather Tianjin

    Today, 21 September, Friday

    Time Temperature Precipitation Wind Pressure Humidity
    00:00 +20°C° 0 mm 3 mps 757 mmHg 87%
    01:00 +20°C° 0 mm 2 mps 757 mmHg 87%
    02:00 +19°C° 0 mm 2 mps 757 mmHg 88%
    03:00 +18°C° 0 mm 2 mps 757 mmHg 86%
    04:00 +18°C° 0 mm 2 mps 757 mmHg 85%
    05:00 +18°C° 0 mm 2 mps 757 mmHg 83%
    06:00 +18°C° 0 mm 2 mps 757 mmHg 76%
    07:00 +19°C° 0 mm 3 mps 758 mmHg 68%
    08:00 +20°C° 0 mm 3 mps 758 mmHg 61%
    09:00 +22°C° 0 mm 3 mps 758 mmHg 49%
    10:00 +25°C° 0 mm 3 mps 758 mmHg 36%
    11:00 +27°C° 0 mm 3 mps 758 mmHg 24%
    12:00 +27°C° 0 mm 4 mps 758 mmHg 22%
    13:00 +28°C° 0 mm 4 mps 757 mmHg 19%
    14:00 +28°C° 0 mm 4 mps 757 mmHg 17%
    15:00 +28°C° 0 mm 4 mps 757 mmHg 19%
    16:00 +28°C° 0 mm 4 mps 757 mmHg 20%
    17:00 +27°C° 0 mm 3 mps 757 mmHg 22%
    18:00 +25°C° 0 mm 3 mps 758 mmHg 23%
    19:00 +24°C° 0 mm 3 mps 758 mmHg 24%
    20:00 +21°C° 0 mm 3 mps 758 mmHg 25%
    21:00 +21°C° 0 mm 3 mps 759 mmHg 26%
    22:00 +20°C° 0 mm 3 mps 759 mmHg 27%
    23:00 +19°C° 0 mm 3 mps 760 mmHg 28%

    Tomorrow, 22 September, Saturday

    Time Temperature Precipitation Wind Pressure Humidity
    00:00 +19°C° 0 mm 4 mps 760 mmHg 28%
    01:00 +19°C° 0 mm 4 mps 760 mmHg 27%
    02:00 +18°C° 0 mm 4 mps 760 mmHg 27%
    03:00 +18°C° 0 mm 4 mps 760 mmHg 27%
    04:00 +18°C° 0 mm 3 mps 760 mmHg 27%
    05:00 +17°C° 0 mm 3 mps 760 mmHg 27%
    06:00 +18°C° 0 mm 4 mps 761 mmHg 28%
    07:00 +18°C° 0 mm 4 mps 761 mmHg 29%
    08:00 +19°C° 0 mm 4 mps 761 mmHg 29%
    09:00 +20°C° 0 mm 4 mps 761 mmHg 27%
    10:00 +22°C° 0 mm 5 mps 761 mmHg 24%
    11:00 +23°C° 0 mm 5 mps 761 mmHg 21%
    12:00 +25°C° 0 mm 5 mps 761 mmHg 20%
    13:00 +25°C° 0 mm 5 mps 760 mmHg 19%
    14:00 +26°C° 0 mm 5 mps 760 mmHg 18%
    15:00 +26°C° 0 mm 4 mps 759 mmHg 19%
    16:00 +26°C° 0 mm 3 mps 759 mmHg 21%
    17:00 +26°C° 0 mm 3 mps 759 mmHg 22%
    18:00 +24°C° 0 mm 3 mps 760 mmHg 22%
    19:00 +22°C° 0 mm 3 mps 760 mmHg 22%
    20:00 +20°C° 0 mm 4 mps 760 mmHg 22%
    21:00 +19°C° 0 mm 4 mps 761 mmHg 23%
    22:00 +19°C° 0 mm 4 mps 761 mmHg 23%
    23:00 +18°C° 0 mm 4 mps 761 mmHg 23%

    Day after tomorrow, 23 September, Sunday

    Time Temperature Precipitation Wind Pressure Humidity
    00:00 +18°C° 0 mm 4 mps 761 mmHg 24%
    01:00 +17°C° 0 mm 5 mps 761 mmHg 25%
    02:00 +16°C° 0 mm 5 mps 761 mmHg 27%
    03:00 +16°C° 0 mm 5 mps 762 mmHg 28%
    04:00 +16°C° 0 mm 5 mps 762 mmHg 30%
    05:00 +15°C° 0 mm 5 mps 762 mmHg 32%
    06:00 +16°C° 0 mm 5 mps 762 mmHg 33%
    07:00 +17°C° 0 mm 5 mps 763 mmHg 33%
    08:00 +19°C° 0 mm 6 mps 763 mmHg 34%
    09:00 +21°C° 0 mm 6 mps 763 mmHg 33%
    10:00 +22°C° 0 mm 6 mps 763 mmHg 31%
    11:00 +23°C° 0 mm 6 mps 763 mmHg 29%
    12:00 +24°C° 0 mm 6 mps 763 mmHg 28%
    13:00 +26°C° 0 mm 6 mps 762 mmHg 26%
    14:00 +27°C° 0 mm 5 mps 762 mmHg 24%
    15:00 +27°C° 0 mm 4 mps 762 mmHg 25%
    16:00 +26°C° 0 mm 4 mps 761 mmHg 26%
    17:00 +26°C° 0 mm 3 mps 761 mmHg 27%
    18:00 +24°C° 0 mm 3 mps 762 mmHg 30%
    19:00 +22°C° 0 mm 3 mps 762 mmHg 33%
    20:00 +20°C° 0 mm 3 mps 763 mmHg 36%
    21:00 +19°C° 0 mm 3 mps 763 mmHg 37%
    22:00 +19°C° 0 mm 3 mps 764 mmHg 39%
    23:00 +18°C° 0 mm 3 mps 764 mmHg 40%

    24 September, Monday

    Time Temperature Precipitation Wind Pressure Humidity
    00:00 +17°C° 0 mm 3 mps 764 mmHg 41%
    01:00 +17°C° 0 mm 3 mps 765 mmHg 42%
    02:00 +16°C° 0 mm 3 mps 765 mmHg 44%
    03:00 +16°C° 0 mm 2 mps 765 mmHg 44%
    04:00 +16°C° 0 mm 2 mps 765 mmHg 44%
    05:00 +16°C° 0 mm 2 mps 765 mmHg 45%
    06:00 +16°C° 0 mm 2 mps 765 mmHg 44%
    07:00 +17°C° 0 mm 2 mps 766 mmHg 42%
    08:00 +18°C° 0 mm 3 mps 766 mmHg 41%
    09:00 +19°C° 0 mm 3 mps 766 mmHg 37%
    10:00 +21°C° 0 mm 3 mps 766 mmHg 33%
    11:00 +22°C° 0 mm 3 mps 766 mmHg 29%
    12:00 +24°C° 0 mm 3 mps 765 mmHg 28%
    13:00 +25°C° 0 mm 3 mps 765 mmHg 26%
    14:00 +25°C° 0 mm 3 mps 764 mmHg 25%
    15:00 +25°C° 0 mm 2 mps 764 mmHg 26%
    16:00 +25°C° 0 mm 2 mps 764 mmHg 27%
    17:00 +25°C° 0 mm 1 mps 763 mmHg 29%
    18:00 +23°C° 0 mm 1 mps 764 mmHg 31%
    19:00 +22°C° 0 mm 1 mps 764 mmHg 33%
    20:00 +20°C° 0 mm 1 mps 764 mmHg 36%
    21:00 +20°C° 0 mm 1 mps 765 mmHg 38%
    22:00 +19°C° 0 mm 1 mps 765 mmHg 40%
    23:00 +19°C° 0 mm 1 mps 765 mmHg 42%

    25 September, Tuesday

    Time Temperature Precipitation Wind Pressure Humidity
    00:00 +18°C° 0 mm 1 mps 765 mmHg 44%
    01:00 +18°C° 0 mm 1 mps 765 mmHg 45%
    02:00 +16°C° 0 mm 1 mps 765 mmHg 47%
    03:00 +16°C° 0 mm 1 mps 765 mmHg 48%
    04:00 +16°C° 0 mm 1 mps 765 mmHg 49%
    05:00 +15°C° 0 mm 1 mps 765 mmHg 50%
    06:00 +16°C° 0 mm 1 mps 765 mmHg 48%
    07:00 +18°C° 0 mm 1 mps 766 mmHg 46%
    08:00 +19°C° 0 mm 1 mps 766 mmHg 44%
    09:00 +21°C° 0 mm 1 mps 766 mmHg 41%
    10:00 +23°C° 0 mm 1 mps 766 mmHg 37%
    11:00 +24°C° 0 mm 1 mps 765 mmHg 33%
    12:00 +25°C° 0 mm 2 mps 765 mmHg 32%
    13:00 +26°C° 0 mm 2 mps 764 mmHg 31%
    14:00 +27°C° 0 mm 2 mps 764 mmHg 29%
    15:00 +26°C° 0 mm 2 mps 764 mmHg 31%
    16:00 +26°C° 0 mm 2 mps 763 mmHg 32%
    17:00 +26°C° 0 mm 2 mps 763 mmHg 34%
    18:00 +24°C° 0 mm 3 mps 764 mmHg 38%
    19:00 +22°C° 0 mm 3 mps 764 mmHg 42%
    20:00 +20°C° 0 mm 4 mps 764 mmHg 47%
    21:00 +20°C° 0 mm 3 mps 764 mmHg 49%
    22:00 +20°C° 0 mm 3 mps 764 mmHg 52%
    23:00 +19°C° 0 mm 3 mps 764 mmHg 54%

    26 September, Wednesday

    Time Temperature Precipitation Wind Pressure Humidity
    00:00 +19°C° 0 mm 3 mps 764 mmHg 56%
    01:00 +18°C° 0 mm 3 mps 764 mmHg 58%
    02:00 +18°C° 0 mm 2 mps 764 mmHg 60%
    03:00 +17°C° 0 mm 2 mps 764 mmHg 60%
    04:00 +17°C° 0 mm 2 mps 764 mmHg 60%
    05:00 +17°C° 0 mm 2 mps 764 mmHg 61%
    06:00 +18°C° 0 mm 2 mps 765 mmHg 57%
    07:00 +19°C° 0 mm 2 mps 765 mmHg 54%
    08:00 +20°C° 0 mm 2 mps 765 mmHg 51%
    09:00 +21°C° 0 mm 3 mps 765 mmHg 45%
    10:00 +24°C° 0 mm 3 mps 765 mmHg 40%
    11:00 +26°C° 0 mm 4 mps 764 mmHg 34%
    12:00 +27°C° 0 mm 4 mps 764 mmHg 33%
    13:00 +27°C° 0 mm 4 mps 763 mmHg 32%
    14:00 +28°C° 0 mm 4 mps 762 mmHg 31%
    15:00 +27°C° 0 mm 4 mps 762 mmHg 33%
    16:00 +27°C° 0 mm 5 mps 762 mmHg 35%
    17:00 +26°C° 0 mm 5 mps 762 mmHg 37%
    18:00 +25°C° 0 mm 5 mps 762 mmHg 41%
    19:00 +23°C° 0 mm 5 mps 762 mmHg 45%
    20:00 +22°C° 0 mm 5 mps 762 mmHg 49%
    21:00 +21°C° 0 mm 5 mps 762 mmHg 49%
    22:00 +21°C° 0 mm 5 mps 762 mmHg 49%
    23:00 +21°C° 0 mm 5 mps 762 mmHg 49%
    Show more